Home > Weather > Smara > Past weeks

Past Weather in Smara, Western Sahara — Yesterday and Last 2 Weeks

Now
70 °F

Passing clouds.


Feels Like: 70 °F
Forecast: 66 / 98 °F
Wind: 24 mph from Northeast

Location: Laayoune/Hassan Isl

Current Time: Aug 24, 2016 at 8:01:44 AM

Latest Report: Aug 24, 2016 at 7:00 AM


Visibility: 5 mi

Pressure: 29.95 "Hg

Humidity: 78%

Dew Point: 63 °F

Location of SmaraLocation

Past Weather in Smara — Graph

°F

Smara Temperature Yesterday

Maximum temperature yesterday: 91 °F (at 4:00 PM)
Minimum temperature yesterday: 68 °F (at 7:00 AM)
Average temperature yesterday: 77 °F

High & Low Weather Summary for the Past Weeks

 TemperatureHumidityPressure
High111 °F (Aug 10, 3:00 PM)94% (Aug 9, 7:00 AM)30.07 "Hg (Aug 9, 7:00 AM)
Low68 °F (Aug 9, 7:00 AM)15% (Aug 10, 2:00 PM)29.74 "Hg (Aug 10, 4:00 PM)
Average78 °F66%29.95 "Hg
* Reported Aug 9 7:00 AM — Aug 24 7:00 AM, Smara, Weather by CustomWeather, © 2016

Note: Actual official high and low records may vary slightly from our data, if they occured in-between our weather recording intervals... More about our weather records

Advertising

Smara Weather History for the Previous 24 Hours

Scroll right to see more
 ConditionsComfort  
Time TempWeatherWind HumidityBarometerVisibility
7:00 AM
Wed, Aug 24
70 °FPassing clouds.24 mph78%29.95 "Hg5 mi
6:00 AM70 °FPassing clouds.17 mph78%29.95 "Hg5 mi
4:00 AM70 °FPassing clouds.20 mph83%29.95 "Hg5 mi
3:00 AM68 °FPassing clouds.16 mph88%29.95 "Hg5 mi
2:00 AM70 °FPassing clouds.15 mph83%29.98 "Hg5 mi
1:00 AM70 °FPassing clouds.16 mph83%30.01 "Hg5 mi
12:00 AM70 °FPassing clouds.17 mph94%30.01 "Hg5 mi
11:00 PM
Tue, Aug 23
70 °FClear.15 mph88%30.01 "Hg5 mi
10:00 PM72 °FSunny.16 mph78%30.01 "Hg10 mi
9:00 PM73 °FSunny.16 mph74%29.98 "Hg10 mi
8:00 PM79 °FSunny.17 mph61%29.98 "Hg10 mi
7:00 PM82 °FSunny.20 mph55%29.98 "Hg10 mi
6:00 PM86 °FSunny.20 mph40%29.95 "Hg10 mi
5:00 PM90 °FSunny.20 mph33%29.98 "Hg10 mi
4:00 PM91 °FSunny.20 mph30%29.98 "Hg10 mi
3:00 PM90 °FSunny.21 mph36%30.01 "Hg10 mi
2:00 PM88 °FSunny.20 mph38%30.01 "Hg10 mi
1:00 PM86 °FSunny.17 mph43%30.04 "Hg10 mi
12:00 PM82 °FSunny.20 mph48%30.04 "Hg10 mi
11:00 AM77 °FSunny.17 mph65%30.04 "Hg10 mi
10:00 AM73 °FPassing clouds.18 mph74%30.04 "HgN/A
9:00 AM72 °FPassing clouds.16 mph83%30.04 "Hg5 mi
8:00 AM70 °FPassing clouds.13 mph88%30.04 "HgN/A
Weather by CustomWeather, © 2016

See weather overviewHow to use our weather pages